DW7346 Weather Reports


Display with metric or nautical units.
time (UTC)temp
F
wind
direction
speed
MPH
gust
MPH
rain 1hr
in
rain 24hr
in
rain mn
in
humidity
%
barometer
mb
20260906004518 96 92 1.0 6.0 0.00 0.00 0.00 47 1007.5
20260906003024 97 148 0.0 3.0 0.00 0.00 0.00 47 1007.5
20260906001518 98 83 0.0 4.0 0.00 0.00 0.00 46 1007.5
20260906000018 99 70 1.0 4.0 0.00 0.00 0.00 44 1007.4
20260905234516 99 98 0.0 4.0 0.00 0.00 0.00 44 1007.2
20260905233017 100 80 0.0 4.0 0.00 0.00 0.00 44 1007.2
20260905231515 100 58 1.0 4.0 0.00 0.00 0.00 44 1007.3
20260905230014 100 49 0.0 3.0 0.00 0.00 0.00 44 1007.2
20260905224514 100 103 0.0 4.0 0.00 0.00 0.00 44 1007.2
20260905223029 101 186 0.0 4.0 0.00 0.00 0.00 43 1007.2
20260905221532 101 52 1.0 5.0 0.00 0.00 0.00 42 1007.3
20260905220009 101 13 0.0 4.0 0.00 0.00 0.00 44 1007.5
20260905214506 101 153 1.0 3.0 0.00 0.00 0.00 43 1007.6
20260905213003 100 131 0.0 5.0 0.00 0.00 0.00 44 1007.8
20260905211600 100 193 1.0 6.0 0.00 0.00 0.00 45 1008.0
20260905210109 98 1 1.0 5.0 0.00 0.00 0.00 48 1008.1
20260905204556 100 334 2.0 6.0 0.00 0.00 0.00 44 1008.4
20260905203057 100 239 1.0 6.0 0.00 0.00 0.00 45 1008.7
20260905201557 99 211 1.0 4.0 0.00 0.00 0.00 46 1008.8
20260905200100 99 124 1.0 3.0 0.00 0.00 0.00 46 1009.0
20260905194545 99 215 0.0 5.0 0.00 0.00 0.00 47 1009.3
20260905193042 98 62 1.0 9.0 0.00 0.00 0.00 48 1009.4
20260905191542 98 119 1.0 5.0 0.00 0.00 0.00 50 1009.7
20260905190037 98 253 1.0 7.0 0.00 0.00 0.00 47 1010.0
20260905184537 97 78 2.0 7.0 0.00 0.00 0.00 50 1010.2
20260905183034 98 222 3.0 7.0 0.00 0.00 0.00 49 1010.5
20260905181532 97 107 0.0 6.0 0.00 0.00 0.00 51 1010.7
20260905180033 95 250 3.0 6.0 0.00 0.00 0.00 53 1010.9
20260905174526 95 165 1.0 5.0 0.00 0.00 0.00 54 1011.2
20260905173023 94 223 1.0 6.0 0.00 0.00 0.00 56 1011.2
20260905171537 94 155 3.0 7.0 0.00 0.00 0.00 57 1011.4
20260905170028 93 207 2.0 6.0 0.00 0.00 0.00 57 1011.5
20260905164519 93 199 2.0 5.0 0.00 0.00 0.00 58 1011.7
20260905163018 92 172 1.0 5.0 0.00 0.00 0.00 60 1011.7
20260905161514 91 240 0.0 3.0 0.00 0.00 0.00 63 1011.7
20260905160019 89 257 2.0 4.0 0.00 0.00 0.00 65 1011.7
20260905154505 89 269 1.0 7.0 0.00 0.00 0.00 68 1011.7
20260905153004 88 212 0.0 2.0 0.00 0.00 0.00 70 1011.7
20260905151502 87 273 1.0 6.0 0.00 0.00 0.00 70 1011.6
20260905150100 86 226 1.0 4.0 0.00 0.00 0.00 72 1011.5
20260905144600 85 220 2.0 6.0 0.00 0.00 0.00 72 1011.6
20260905143059 85 299 2.0 6.0 0.00 0.00 0.00 74 1011.5
20260905141558 84 178 2.0 6.0 0.00 0.00 0.00 76 1011.6
20260905140058 83 230 2.0 4.0 0.00 0.00 0.00 79 1011.5
20260905134558 82 193 1.0 4.0 0.00 0.00 0.00 81 1011.4
20260905133055 80 184 1.0 4.0 0.00 0.00 0.00 84 1011.3
20260905131555 78 195 0.0 0.0 0.00 0.00 0.00 87 1011.2
20260905130052 78 195 0.0 0.0 0.00 0.00 0.00 88 1011.0
20260905124551 77 195 0.0 0.0 0.00 0.00 0.00 87 1010.9
20260905123048 77 195 0.0 0.0 0.00 0.00 0.00 87 1010.8
20260905121546 77 195 0.0 0.0 0.00 0.00 0.00 86 1010.6
20260905120045 78 195 0.0 0.0 0.00 0.00 0.00 84 1010.5
20260905114548 78 195 0.0 0.0 0.00 0.00 0.00 84 1010.6
20260905113044 78 195 0.0 0.0 0.00 0.00 0.00 84 1010.5
20260905111541 79 195 0.0 0.0 0.00 0.00 0.00 83 1010.3
20260905110039 79 195 0.0 0.0 0.00 0.00 0.00 83 1010.4
20260905104544 79 195 0.0 0.0 0.00 0.00 0.00 82 1010.5
20260905103037 80 195 0.0 0.0 0.00 0.00 0.00 81 1010.7
20260905101537 80 195 0.0 0.0 0.00 0.00 0.00 80 1010.7
20260905100031 81 195 0.0 0.0 0.00 0.00 0.00 80 1010.5
20260905094529 81 195 0.0 0.0 0.00 0.00 0.00 78 1010.5
20260905093027 82 195 0.0 2.0 0.00 0.00 0.00 78 1010.3
20260905091525 82 207 1.0 4.0 0.00 0.00 0.00 77 1010.1
20260905090024 82 221 1.0 3.0 0.00 0.00 0.00 77 1010.1
20260905084530 82 192 1.0 4.0 0.00 0.00 0.00 76 1010.1
20260905083022 82 203 0.0 2.0 0.00 0.00 0.00 76 1010.1
20260905081520 83 203 0.0 0.0 0.00 0.00 0.00 75 1010.2
20260905080033 83 219 1.0 3.0 0.00 0.00 0.00 74 1010.1
20260905074517 84 226 1.0 5.0 0.00 0.00 0.00 73 1010.0
20260905073032 84 171 1.0 5.0 0.00 0.00 0.00 72 1010.2
20260905071515 85 174 1.0 5.0 0.00 0.00 0.00 71 1010.2
20260905070011 85 225 0.0 5.0 0.00 0.00 0.00 71 1010.3
20260905064513 85 202 0.0 4.0 0.00 0.00 0.00 70 1010.3
20260905063009 85 224 1.0 4.0 0.00 0.00 0.00 70 1010.3
20260905061507 86 212 1.0 5.0 0.00 0.00 0.00 69 1010.4
20260905060004 86 210 1.0 4.0 0.00 0.00 0.00 68 1010.4
20260905054503 86 195 1.0 5.0 0.00 0.00 0.00 68 1010.2
20260905053100 87 191 1.0 5.0 0.00 0.00 0.00 68 1010.2
20260905051559 87 193 2.0 4.0 0.00 0.00 0.00 67 1010.0
20260905050056 87 185 2.0 4.0 0.00 0.00 0.00 66 1010.1
20260905044555 88 201 2.0 6.0 0.00 0.00 0.00 65 1010.0
20260905043114 88 98 1.0 6.0 0.00 0.00 0.00 64 1010.0
20260905041555 89 195 2.0 5.0 0.00 0.00 0.00 63 1009.9
20260905040115 89 200 1.0 6.0 0.00 0.00 0.00 61 1010.1
20260905034557 89 241 1.0 7.0 0.00 0.00 0.00 59 1010.2
20260905033056 89 127 1.0 5.0 0.00 0.00 0.00 59 1010.1
20260905031553 89 100 0.0 5.0 0.00 0.00 0.00 58 1009.9
20260905030052 90 90 1.0 5.0 0.00 0.00 0.00 57 1009.8
20260905024552 90 75 1.0 5.0 0.00 0.00 0.00 57 1009.7
20260905023058 90 114 0.0 1.0 0.00 0.00 0.00 57 1009.5
20260905021552 91 106 0.0 2.0 0.00 0.00 0.00 56 1009.2
20260905020050 91 101 0.0 4.0 0.00 0.00 0.00 56 1009.0
20260905014548 92 126 0.0 5.0 0.00 0.00 0.00 56 1008.7
20260905013056 92 136 2.0 5.0 0.00 0.00 0.00 55 1008.5
20260905011548 93 212 3.0 8.0 0.00 0.00 0.00 55 1008.4
20260905010051 93 151 2.0 10.0 0.00 0.00 0.00 55 1008.3